Terminal Aerodrome Forecast
Issued by NWS

Home | Current Version | Previous Version | Text Only | Print | Product List | Glossary On
Versions: 1 2 3 4 5 6 7 8 9 10 11 12 13 14 15 16 17 18 19 20 21
769
FTUS43 KDTX 270106 AAA
TAFMBS
TAF AMD
KMBS 270106Z 2701/2724 VRB03KT 1/2SM FG OVC003
     FM270300 16008KT 4SM -SHRA BR OVC006
     FM270500 21005KT 4SM BR OVC004
     FM271500 24008KT P6SM BKN015 OVC050
     FM271800 21008KT P6SM BKN025 BKN050=

USA.gov is the U.S. government's official web portal to all federal, state and local government web resources and services.